AO-07 1 07530U 74089B 24263.73480273 -.00000032 00000-0 88902-4 0 9991 2 07530 101.9864 259.2909 0011853 264.2389 271.2226 12.53679651281125 UO-11 1 14781U 84021B 24263.36330797 .00003157 00000-0 35458-3 0 9995 2 14781 97.7160 229.8948 0009700 119.4671 240.7514 14.87410293162483 AO-27 1 22825U 93061C 24263.75144734 .00000416 00000-0 17664-3 0 9998 2 22825 98.7789 317.4726 0008914 155.9160 204.2440 14.30586050616403 FO-29 1 24278U 96046B 24263.53803781 .00000059 00000-0 99539-4 0 9993 2 24278 98.5798 185.8215 0349164 304.0044 52.8380 13.53211018387192 NOAA-15 1 25338U 98030A 24263.84757078 .00000529 00000-0 23624-3 0 9990 2 25338 98.5641 288.9824 0011166 52.7774 307.4424 14.26713971370931 GO-32 1 25397U 98043D 24263.38573339 .00000322 00000-0 15977-3 0 9997 2 25397 98.9336 231.5658 0000459 188.5820 171.5351 14.24126432360827 ISS 1 25544U 98067A 24263.79940138 .00022843 00000-0 41611-3 0 9993 2 25544 51.6373 206.7434 0007421 10.2584 349.8555 15.49351530473220 NO-44 1 26931U 01043C 24263.47090927 .00000574 00000-0 24751-3 0 9992 2 26931 67.0496 87.9528 0007641 266.9180 93.1047 14.31378482199446 SO-50 1 27607U 02058C 24263.43915780 .00002960 00000-0 40922-3 0 9998 2 27607 64.5541 291.7089 0026878 59.9853 300.3913 14.79691973170266 CO-55 1 27844U 03031E 24263.42789423 .00001041 00000-0 47729-3 0 9996 2 27844 98.6802 269.1652 0008753 226.1645 133.8811 14.23473973101190 CO-57 1 27848U 03031J 24263.82183281 .00000891 00000-0 41573-3 0 9997 2 27848 98.6832 269.7436 0008469 243.3805 116.6506 14.22886038101049 RS-22 1 27939U 03042A 24263.89736694 .00003684 00000-0 61316-3 0 9999 2 27939 98.3031 61.6981 0012675 119.3650 36.4184 14.70639143122192 NOAA-18 1 28654U 05018A 24263.79295417 .00000573 00000-0 32850-3 0 9996 2 28654 98.8684 339.9514 0014837 152.0247 208.1725 14.13334004996628 CO-58 1 28895U 05043F 24263.36515714 .00004161 00000-0 72350-3 0 9995 2 28895 98.2152 39.4413 0016039 62.2218 298.0611 14.68593625 8278 CO-65 1 32785U 08021C 24263.89838519 .00011329 00000-0 94713-3 0 9997 2 32785 97.7639 228.5879 0010871 19.7048 340.4593 14.98618383889728 AAUSAT2 1 32788U 08021F 24263.74363650 .00053603 00000-0 21453-2 0 9994 2 32788 97.6015 244.7195 0006114 147.6750 212.4863 15.24863585892790 CO-66 1 32791U 08021J 24263.66614300 .00020015 00000-0 13350-2 0 9998 2 32791 97.7008 234.5353 0005194 25.7154 334.4331 15.07075466890811 RS-30 1 32953U 08025A 24263.79709092 .00000029 00000-0 13765-3 0 9993 2 32953 82.5062 30.6253 0018698 257.1714 102.7277 12.43148324740880 PRISM 1 33493U 09002B 24263.62623156 .00048585 00000-0 18205-2 0 9999 2 33493 98.1933 319.8147 0009650 275.6482 84.3654 15.27063670853423 NOAA-19 1 33591U 09005A 24263.82871344 .00000474 00000-0 27784-3 0 9995 2 33591 99.0377 320.5904 0014137 29.5408 330.6560 14.13123267804998 SRMSAT 1 37841U 11058D 24263.53391347 .00000715 00000-0 24585-3 0 9990 2 37841 19.9723 306.1142 0011926 52.5067 99.0228 14.11211128667907 RS-40 1 38735U 12041C 24263.86318801 .00000055 00000-0 33025-3 0 9992 2 38735 82.4717 110.8634 0017794 15.0768 345.0839 12.42616039551024 ZACUBE-1 1 39417U 13066B 24263.40484799 .00007732 00000-0 76900-3 0 9996 2 39417 97.7428 217.4013 0047870 206.0283 153.8528 14.91076379585612 Delfi-N3xt 1 39428U 13066N 24263.83553909 .00012564 00000-0 15144-2 0 9996 2 39428 97.8326 179.7861 0098530 140.1646 220.6854 14.80510767580266 GOMX-1 1 39430U 13066Q 24263.87934941 .00005247 00000-0 85870-3 0 9996 2 39430 97.7160 132.5119 0136850 312.1266 46.8372 14.65124020576909 LO-74 1 39440U 13066AA 24263.84341943 .00010180 00000-0 11518-2 0 9997 2 39440 97.8182 205.5758 0066465 326.2568 33.4424 14.85026282583574 AO-73 1 39444U 13066AE 24263.83811865 .00013486 00000-0 12275-2 0 9998 2 39444 97.7291 221.2249 0045893 182.1715 177.9314 14.94488037584824 DTUSAT-2 1 40030U 14033W 24263.78137425 .00012044 00000-0 95355-3 0 9993 2 40030 98.0180 218.9130 0009191 201.1287 158.9557 15.00723057557388 EO-80 1 40032U 14033Y 24263.34776476 .00012021 00000-0 95125-3 0 9992 2 40032 98.0123 218.4395 0009195 160.4925 199.6651 15.00742334556784 XW-2C 1 40906U 15049H 24263.84716965 .00071592 00000-0 11755-2 0 9996 2 40906 97.4720 283.6643 0004126 335.1601 24.9452 15.52164820499107 XW-2D 1 40907U 15049J 24263.82287877 .00157531 00000-0 14430-2 0 9991 2 40907 97.4622 287.5684 0001172 273.5941 86.5185 15.67278835499427 LILACSAT-2 1 40908U 15049K 24263.84877371 .00017572 00000-0 62045-3 0 9994 2 40908 97.5242 273.4141 0012255 28.3475 331.8429 15.29214189497943 XW-2B 1 40911U 15049N 24263.85060088 .00148864 00000-0 14614-2 0 9995 2 40911 97.4601 287.5024 0001134 302.0243 58.0906 15.65573073499287 IO-86 1 40931U 15052B 24248.77622707 .00001594 00000-0 12789-3 0 9997 2 40931 5.9975 143.8985 0012167 132.8017 227.3134 14.78024499483365 ChubuSat-2 1 41338U 16012B 24263.00755882 .00008999 00000-0 53252-3 0 9996 2 41338 30.9997 146.2627 0010028 95.7133 264.4649 15.10098616471784 ChubuSat-3 1 41339U 16012C 24263.78541328 .00009481 00000-0 57321-3 0 9998 2 41339 31.0063 140.3879 0010131 107.8810 252.2934 15.09340406471874 Horyu-4 1 41340U 16012D 24263.55553332 .00022563 00000-0 10004-2 0 9995 2 41340 31.0010 78.9981 0007090 216.3332 143.6828 15.20411630472500 Lapan A3 1 41603U 16040E 24263.81364574 .00006889 00000-0 26666-3 0 9990 2 41603 97.1425 273.3138 0013636 120.9980 239.2601 15.26400661457650 Pratham 1 41783U 16059A 24263.51776460 .00002196 00000-0 41208-3 0 9993 2 41783 97.8350 278.4405 0033906 81.9612 278.5437 14.65298362426357 CAS-2T 1 41847U 16066G 24263.42807599 .00002563 00000-0 38203-3 0 9999 2 41847 98.4525 334.0267 0350989 253.3849 102.8532 14.41801873413075 CAS-4B 1 42759U 17034B 24263.87509654 .00038977 00000-0 11758-2 0 9991 2 42759 43.0165 49.5985 0013611 269.4582 90.4713 15.33546318401914 CAS-4A 1 42761U 17034D 24263.86787723 .00038447 00000-0 11531-2 0 9999 2 42761 43.0205 47.9085 0013482 280.3303 79.6031 15.33737154401927 D-SAT 1 42794U 17036AF 24263.41889947 .00009132 00000-0 60467-3 0 9991 2 42794 97.4883 241.9777 0106144 186.5703 173.4138 15.02957083394867 TechnoSat 1 42829U 17042E 24263.48752950 .00006999 00000-0 59789-3 0 9990 2 42829 97.3871 79.3683 0012883 115.3979 244.8580 14.97887014391288 AO-91 1 43017U 17073E 24263.59255624 .00017775 00000-0 10452-2 0 9999 2 43017 97.5606 135.8178 0201303 338.0568 21.2121 14.96203618369765 TianYi 6 1 43158U 18008D 24263.69477172 .00297965 00000-0 21023-2 0 9996 2 43158 97.2471 313.8289 0004574 145.9018 214.2541 15.73179672369178 S-Net D 1 43186U 18014G 24263.44561992 .00008769 00000-0 59948-3 0 9991 2 43186 97.5790 163.6713 0012232 54.6016 305.6352 15.06313243362687 S-Net B 1 43187U 18014H 24263.44840916 .00009051 00000-0 61866-3 0 9995 2 43187 97.5798 163.6304 0012900 50.1940 310.0421 15.06303904362681 S-Net A 1 43188U 18014J 24263.31382896 .00008206 00000-0 56126-3 0 9994 2 43188 97.5804 163.6188 0012810 51.3658 308.8713 15.06311983362662 S-Net C 1 43189U 18014K 24263.45047908 .00009050 00000-0 61828-3 0 9995 2 43189 97.5823 163.7197 0014244 43.6442 316.5909 15.06305129361233 Ten-Koh 1 43677U 18084G 24263.41769885 .00005308 00000-0 46310-3 0 9996 2 43677 98.0751 59.8521 0014290 65.5804 294.6906 14.97216952320819 PO-101 1 43678U 18084H 24263.87668231 .00004497 00000-0 40579-3 0 9999 2 43678 98.0840 64.7439 0010313 79.7152 280.5231 14.96022339321074 QO-100 1 43700U 18090A 24263.81343056 .00000136 00000-0 00000+0 0 9998 2 43700 0.0178 207.9515 0001069 333.3618 136.5015 1.00270332 21545 MinXSS-2 1 43758U 18099A 24263.16918012 .00017661 00000-0 10132-2 0 9999 2 43758 97.5443 324.2360 0014832 0.0282 0.0947 15.12524989316973 AO-95 1 43770U 18099N 24263.13279619 .00012247 00000-0 78870-3 0 9992 2 43770 97.5349 319.0707 0013612 47.9930 312.2455 15.08416732316719 RANGE-B 1 43772U 18099Q 24263.65383703 .00023188 00000-0 12782-2 0 9996 2 43772 97.5138 323.4673 0003968 301.6590 58.4255 15.13984123316990 RANGE-A 1 43773U 18099R 24263.10506168 .00007901 00000-0 57450-3 0 9996 2 43773 97.4899 313.3629 0012725 19.5644 340.6068 15.04026043316546 MOVE-II 1 43780U 18099Y 24263.58168789 .00038487 00000-0 16486-2 0 9995 2 43780 97.5107 326.0272 0004713 18.0047 342.1355 15.22661874317253 SNUSat 2 1 43782U 18099AA 24263.40680812 .00009975 00000-0 66440-3 0 9990 2 43782 97.5041 317.9653 0013100 347.1719 12.9174 15.07231843316753 SnugLite 1 43784U 18099AC 24263.41190584 .00013204 00000-0 84522-3 0 9996 2 43784 97.4861 317.2675 0003679 12.5302 347.6017 15.08688658316836 ITASat 1 1 43786U 18099AE 24263.59533384 .00009656 00000-0 65779-3 0 9995 2 43786 97.4993 318.2630 0016992 35.8333 324.4031 15.06355519316777 EAGLET 1 1 43790U 18099AJ 24263.41289297 .00007543 00000-0 54323-3 0 9998 2 43790 97.5199 318.5624 0013433 18.3567 341.8141 15.04398682316433 ESEO 1 43792U 18099AL 24263.59705846 .00003832 00000-0 30893-3 0 9995 2 43792 97.5031 314.9774 0007222 358.0901 2.0294 15.00455624316353 CSIM 1 43793U 18099AM 24263.45883617 .00039019 00000-0 16962-2 0 9990 2 43793 97.5215 327.6907 0009600 345.0460 15.0491 15.22125165317087 JO-97 1 43803U 18099AX 24263.41756017 .00015386 00000-0 93948-3 0 9992 2 43803 97.5103 320.1104 0008240 348.3135 11.7902 15.10361640316903 Suomi 100 1 43804U 18099AY 24263.12655383 .00013121 00000-0 82463-3 0 9990 2 43804 97.5169 319.5867 0014080 344.3248 15.7543 15.09289797316831 ISAT 1 43879U 18111D 24263.24760393 .00020948 00000-0 11429-2 0 9996 2 43879 97.6076 168.6601 0014219 47.2399 313.0026 15.14294887313637 UWE-4 1 43880U 18111E 24263.50229447 .00020793 00000-0 11779-2 0 9993 2 43880 97.6001 168.6759 0017789 51.5856 308.6969 15.12901989313678 Sparrow 1 43881U 18111F 24263.18453656 .00021243 00000-0 11403-2 0 9994 2 43881 97.6197 170.6904 0012654 81.2211 279.0453 15.14888256313695 Prox-1 1 44339U 19036A 24263.51663404 .00014431 00000-0 23185-2 0 9992 2 44339 23.9996 337.2955 0007220 340.1141 19.9072 14.69923260279123 SONATE 1 44400U 19038Q 24263.74107823 .00040122 00000-0 97947-3 0 9990 2 44400 97.7158 262.4756 0017310 123.4131 236.8773 15.40591681288600 Taurus 1 1 44530U 19059C 24263.77540855 .00014128 00000-0 30884-2 0 9999 2 44530 98.5844 26.6295 0010957 129.1022 231.1152 14.57838713265538 Duchifat 3 1 44854U 19089C 24263.87655892 .00033165 00000-0 14411-2 0 9990 2 44854 36.9545 192.2596 0007539 207.7134 152.3214 15.21414726262608 TO-108 1 44881U 19093C 24263.84529274 .00002740 00000-0 33291-3 0 9999 2 44881 97.8216 338.7975 0014490 18.6382 341.5361 14.84251581257082 FloripaSat 1 1 44885U 19093G 24263.76967792 .00011070 00000-0 10889-2 0 9998 2 44885 97.8360 345.7125 0011627 6.7001 353.4371 14.92230383257467 RS-44 1 44909U 19096E 24263.63258469 .00000016 00000-0 19058-4 0 9995 2 44909 82.5223 41.9996 0217418 190.1385 169.5296 12.79734014221054 UPMSat 2 1 46276U 20061E 24263.16109749 .00029703 00000-0 76552-3 0 9997 2 46276 97.2871 328.5575 0002287 137.9821 222.1600 15.39150131224602 AmicalSat 1 46287U 20061R 24263.86083475 .00094871 00000-0 17509-2 0 9997 2 46287 97.3365 331.7406 0002718 214.5872 145.5202 15.48761163224158 SALSAT 1 46495U 20068K 24263.38417404 .00012922 00000-0 68652-3 0 9998 2 46495 97.8262 225.2211 0013063 2.3807 357.7484 15.15371011218567 UVSQ-SAT 1 47438U 21006AB 24263.22680990 .00228239 00000-0 17815-2 0 9998 2 47438 97.3091 326.0940 0006719 220.0201 140.0568 15.70958512203362 SOMP 2b 1 47445U 21006AJ 24263.13402764 .00132416 00000-0 14865-2 0 9990 2 47445 97.3054 323.5548 0006381 223.6197 136.4558 15.62179782203221 IDEASSat 1 47458U 21006AX 24263.21474296 .00105828 00000-0 14965-2 0 9990 2 47458 97.3185 323.7623 0006053 224.7548 135.3219 15.56146808203132 CubeSX-Sirius-HSE 1 47951U 21022V 24263.91133947 .00045702 00000-0 14606-2 0 9994 2 47951 97.4455 162.3412 0014066 148.5765 211.6320 15.32210588193041 CubeSX-HSE 1 47952U 21022W 24263.85591960 .00046063 00000-0 14626-2 0 9994 2 47952 97.4455 162.3989 0014104 147.7247 212.4860 15.32416346193048 KSU-Cubesat 1 47954U 21022Y 24263.23027703 .00054442 00000-0 14912-2 0 9995 2 47954 97.4462 163.6192 0013276 141.3806 218.8390 15.37047117192787 GRBAlpha 1 47959U 21022AD 24263.81507282 .00045477 00000-0 14418-2 0 9998 2 47959 97.4456 162.5217 0013903 148.1120 212.0966 15.32471311191867 Orbicraft-Zorkiy 1 47960U 21022AE 24263.85678031 .00052939 00000-0 15209-2 0 9995 2 47960 97.4500 164.2438 0013313 142.5312 217.6862 15.35563442192642 TUBIN 1 48900U 21059X 24263.81322807 .00034735 00000-0 10135-2 0 9990 2 48900 97.6578 51.5764 0006321 115.2356 244.9542 15.35245691179411 LEDSAT 1 49069U 21073D 24263.61225113 .00030519 00000-0 10409-2 0 9993 2 49069 97.4285 334.3736 0016092 309.4530 50.5286 15.30174584170862 CUTE 1 49263U 21088D 24263.46869478 .00036534 00000-0 14338-2 0 9994 2 49263 97.4871 329.1215 0013927 114.3051 245.9643 15.25544513163987 TeikyoSat 4 1 49396U 21102B 24263.67313164 .00005447 00000-0 38507-3 0 9991 2 49396 97.4501 305.3863 0012120 317.8962 42.1332 15.05227745156969 Z-Sat 1 49399U 21102E 24263.89347575 .00007808 00000-0 48332-3 0 9991 2 49399 97.4211 307.4133 0018132 293.6463 66.2863 15.09934063157272 KOSEN 1 1 49402U 21102H 24263.39667048 .00010533 00000-0 58831-3 0 9995 2 49402 97.4142 308.7431 0016336 275.4127 84.5241 15.13585888157381 HO-113 1 50466U 21131B 24263.84710645 .00001825 00000-0 59377-3 0 9991 2 50466 98.5248 348.4759 0004052 189.3546 170.7567 14.39970827143625 IRIS-A 1 51044U 22002BN 24263.75540000 .00043567 00000-0 11600-2 0 9993 2 51044 97.3742 330.2490 0005437 69.8680 290.3149 15.38053988148927 OreSat0 1 52017U 22026K 24263.62252203 .00762286 25412-3 19069-2 0 9991 2 52017 97.4760 284.0259 0008735 195.8777 164.2227 15.95702864140496 Planetum 1 1 52738U 22057G 24263.80441838 .00145911 00000-0 19828-2 0 9995 2 52738 97.5730 34.2799 0004740 207.0227 153.0781 15.57089433129201 Foresail-1 1 52766U 22057AL 24263.80123894 .00045165 00000-0 11855-2 0 9997 2 52766 97.5928 31.9695 0008655 159.0247 201.1354 15.38464470128967 SNUGLITE 2 1 52899U 22065F 24263.35591196 .00003243 00000-0 66368-3 0 9998 2 52899 98.1334 42.7800 0007212 212.5179 147.5579 14.61459884118012 IO-117 1 53106U 22080B 24262.04253631 -.00000003 00000-0 00000-0 0 9991 2 53106 70.1426 160.2682 0008012 86.6369 273.5207 6.42557475 51233 FO-118 1 54684U 22167C 24263.85545520 .00076433 00000-0 19308-2 0 9992 2 54684 97.6149 51.5278 0008669 180.8125 179.3107 15.39493591 98810 SSS-2B 1 56184U 23054G 24263.91010677 .00109455 00000-0 16887-2 0 9992 2 56184 97.3512 163.3323 0007369 142.9663 217.2100 15.53734015 80779 CIRBE 1 56188U 23054L 24263.20311695 .00591689 13433-3 21672-2 0 9991 2 56188 97.3360 167.0424 0010727 137.5078 222.7026 15.88242295 80982 SO-120 1 56992U 23084BU 24263.29768981 .00070731 00000-0 18578-2 0 9994 2 56992 97.5381 24.2795 0007921 45.8958 314.2937 15.38327117 70591 MRC-100 1 56993U 23084BV 24263.61087357 .00091822 00000-0 20820-2 0 9999 2 56993 97.5376 25.4229 0006532 34.8506 325.3167 15.42716003 70707 UmKA 1 (RS40S) 1 57172U 23091G 24263.86480141 .00010612 00000-0 66456-3 0 9996 2 57172 97.6016 315.0112 0017251 153.8986 206.3116 15.09435844 67760 CubeBel-2 (EU11S) 1 57175U 23091K 24263.88881467 .00015164 00000-0 91468-3 0 9995 2 57175 97.6016 315.1207 0015289 165.0510 195.1174 15.10741948 67773 VERONIKA 1 58261U 23174F 24263.83180680 .00041078 00000-0 15345-2 0 9990 2 58261 97.4518 338.0456 0010507 265.3466 94.6573 15.27196986 48125 KAFASAT 1 58317U 23174BP 24263.85990639 .00056625 00000-0 17965-2 0 9991 2 58317 97.4460 339.1530 0009960 238.9617 121.0648 15.32437577 48211 ENSO 1 58470U 23185J 24263.85984431 .00035381 00000-0 12751-2 0 9990 2 58470 97.4161 329.8303 0010032 303.9476 56.0810 15.28419322 44577 EIRSAT-1 1 58472U 23185L 24263.84755872 .00039232 00000-0 13598-2 0 9995 2 58472 97.4155 329.9709 0009577 303.7594 56.2734 15.29676210 44584 SO-121 1 58567U 23174CY 24263.18204153 .00168519 00000-0 29387-2 0 9990 2 58567 97.4415 340.1985 0011531 246.1728 113.8315 15.50039803 48226 SONATE-2 1 59112U 24043Q 24263.30587527 .00020702 00000-0 90393-3 0 9993 2 59112 97.4889 26.3758 0013545 326.9445 33.0943 15.22071909 30109 MESAT1 1 60209U 24125G 24263.48201891 .00022371 00000-0 96951-3 0 9999 2 60209 97.3113 114.1043 0025069 357.6128 2.4985 15.22101449 11741 GRBBeta 1 60237U 24128C 24263.58602363 .00007254 00000-0 62565-3 0 9990 2 60237 61.9926 273.5331 0017924 339.4332 20.6033 14.97975383 10738 Curium One 1 60242U 24128H 24263.42145017 .00010820 00000-0 93354-3 0 9990 2 60242 61.9834 274.3062 0018913 325.4193 34.5664 14.97579982 10718 ROBUSTA-3A 1 60243U 24128J 24263.43111335 .00010873 00000-0 94429-3 0 9990 2 60243 61.9897 274.4113 0017249 320.4068 39.5759 14.97343782 10710 CatSat 1 60246U 24125J 24263.64875349 .00014344 00000-0 62632-3 0 9993 2 60246 97.2945 115.4238 0049707 306.4839 53.1823 15.21090776 9885 SR-0 DemoSAT 1 60455U 24147B 24263.85493110 .00241517 00000-0 47419-2 0 9993 2 60455 37.3775 82.6468 0021782 301.1180 58.7447 15.45310196 5333 Binar 4 1 60952U 98067WS 24262.07641569 .00312162 00000-0 41554-2 0 9992 2 60952 51.6360 214.7413 0008951 20.1328 340.0015 15.56507040 3061 CosmoGirlSat 1 60953U 98067WT 24263.56311061 .00115406 00000-0 16773-2 0 9996 2 60953 51.6373 207.4184 0010874 20.8234 339.3198 15.54841169 3299 Sakura 1 60954U 98067WU 24263.23798183 .00135420 00000-0 19246-2 0 9991 2 60954 51.6368 208.9962 0010668 21.0856 339.0573 15.55368617 3240 Binar 2 1 60956U 98067WW 24262.14063217 .00184680 00000-0 25471-2 0 9994 2 60956 51.6329 214.4148 0009466 19.5723 340.5630 15.56003247 3063 Binar 3 1 60957U 98067WX 24263.22778076 .00195627 00000-0 25662-2 0 9996 2 60957 51.6352 208.9273 0008319 25.0673 335.0721 15.57322181 5221 /EX